Location: Evergreen Manor
(41.4083°N, 81.4939°W)
Time: 23:36:51
(UTC+00:00)

Cosmos 371 Rocket - Pass Details

Date: 11 December 2019
Orbit: 684 x 699 km, 74.0° (Epoch: 26 January)

Event Time Altitude Azimuth Distance (km) Brightness Sun altitude
Rises 11:41:14 0° 209° (SSW) 3,044 6.5 -11.1°
Reaches altitude 10° 11:43:33 10° 213° (SSW) 2,134 5.7 -10.7°
Maximum altitude 11:48:17 58° 292° (WNW) 811 3.3 -9.8°
Drops below altitude 10° 11:53:05 10° 12° (NNE) 2,159 5.7 -9.0°
Sets 11:55:27 0° 16° (NNE) 3,083 6.6 -8.6°
